Year,Month,Day,Hour,Minute,Value (Times are PST for temperature in C)
2016,05,01,00,00,8.80
2016,05,01,00,01,8.70
2016,05,01,00,02,8.70
2016,05,01,00,03,8.70
2016,05,01,00,04,8.70
2016,05,01,00,05,8.70
2016,05,01,00,06,8.70
2016,05,01,00,07,8.70
2016,05,01,00,08,8.70
2016,05,01,00,09,8.60
2016,05,01,00,10,8.60
2016,05,01,00,11,8.60
2016,05,01,00,12,8.60
2016,05,01,00,13,8.60
2016,05,01,00,14,8.60
2016,05,01,00,15,8.60
2016,05,01,00,16,8.60
2016,05,01,00,17,8.60
2016,05,01,00,18,8.60
2016,05,01,00,19,8.60
2016,05,01,00,20,8.60
2016,05,01,00,21,8.60
2016,05,01,00,22,8.60
2016,05,01,00,23,8.50
2016,05,01,00,24,8.50
2016,05,01,00,25,8.50
2016,05,01,00,26,8.50
2016,05,01,00,27,8.50
2016,05,01,00,28,8.50
2016,05,01,00,29,8.40
2016,05,01,00,30,8.40
2016,05,01,00,31,8.40
2016,05,01,00,32,8.40
2016,05,01,00,33,8.40
2016,05,01,00,34,8.40
2016,05,01,00,35,8.40
2016,05,01,00,36,8.40
2016,05,01,00,37,8.30
2016,05,01,00,38,8.30
2016,05,01,00,39,8.30
2016,05,01,00,40,8.30
2016,05,01,00,41,8.30
2016,05,01,00,42,8.30
2016,05,01,00,43,8.30
2016,05,01,00,44,8.20
2016,05,01,00,45,8.20
2016,05,01,00,46,8.20
2016,05,01,00,47,8.20
2016,05,01,00,48,8.20
2016,05,01,00,49,8.20
2016,05,01,00,50,8.20
2016,05,01,00,51,8.20
2016,05,01,00,52,8.20
2016,05,01,00,53,8.20
2016,05,01,00,54,8.20
2016,05,01,00,55,8.20
2016,05,01,00,56,8.20
2016,05,01,00,57,8.10
2016,05,01,00,58,8.10
2016,05,01,00,59,8.10
2016,05,01,01,00,8.10
2016,05,01,01,01,8.10
2016,05,01,01,02,8.10
2016,05,01,01,03,8.10
2016,05,01,01,04,8.10
2016,05,01,01,05,8.10
2016,05,01,01,06,8.10
2016,05,01,01,07,8.10
2016,05,01,01,08,8.00
2016,05,01,01,09,8.00
2016,05,01,01,10,8.00
2016,05,01,01,11,8.00
2016,05,01,01,12,8.00
2016,05,01,01,13,8.00
2016,05,01,01,14,8.00
2016,05,01,01,15,8.00
2016,05,01,01,16,8.00
2016,05,01,01,17,8.00
2016,05,01,01,18,8.00
2016,05,01,01,19,8.00
2016,05,01,01,20,8.00
2016,05,01,01,21,8.00
2016,05,01,01,22,8.00
2016,05,01,01,23,8.00
2016,05,01,01,24,8.00
2016,05,01,01,25,8.00
2016,05,01,01,26,8.00
2016,05,01,01,27,7.90
2016,05,01,01,28,7.90
2016,05,01,01,29,7.90
2016,05,01,01,30,7.90
2016,05,01,01,31,7.90
2016,05,01,01,32,7.90
2016,05,01,01,33,7.80
2016,05,01,01,34,7.80
2016,05,01,01,35,7.80
2016,05,01,01,36,7.80
2016,05,01,01,37,7.80
2016,05,01,01,38,7.80
2016,05,01,01,39,7.80
2016,05,01,01,40,7.80
2016,05,01,01,41,7.80
2016,05,01,01,42,7.80
2016,05,01,01,43,7.80
2016,05,01,01,44,7.80
2016,05,01,01,45,7.80
2016,05,01,01,46,7.80
2016,05,01,01,47,7.80
2016,05,01,01,48,7.70
2016,05,01,01,49,7.70
2016,05,01,01,50,7.70
2016,05,01,01,51,7.70
2016,05,01,01,52,7.70
2016,05,01,01,53,7.70
2016,05,01,01,54,7.70
2016,05,01,01,55,7.60
2016,05,01,01,56,7.60
2016,05,01,01,57,7.60
2016,05,01,01,58,7.60
2016,05,01,01,59,7.60
2016,05,01,02,00,7.60
2016,05,01,02,01,7.60
2016,05,01,02,02,7.60
2016,05,01,02,03,7.60
2016,05,01,02,04,7.60
2016,05,01,02,05,7.60
2016,05,01,02,06,7.50
2016,05,01,02,07,7.50
2016,05,01,02,08,7.50
2016,05,01,02,09,7.50
2016,05,01,02,10,7.50
2016,05,01,02,11,7.50
2016,05,01,02,12,7.50
2016,05,01,02,13,7.50
2016,05,01,02,14,7.50
2016,05,01,02,15,7.50
2016,05,01,02,16,7.50
2016,05,01,02,17,7.50
2016,05,01,02,18,7.40
2016,05,01,02,19,7.40
2016,05,01,02,20,7.40
2016,05,01,02,21,7.40
2016,05,01,02,22,7.40
2016,05,01,02,23,7.40
2016,05,01,02,24,7.40
2016,05,01,02,25,7.40
2016,05,01,02,26,7.30
2016,05,01,02,27,7.30
2016,05,01,02,28,7.30
2016,05,01,02,29,7.30
2016,05,01,02,30,7.30
2016,05,01,02,31,7.30
2016,05,01,02,32,7.30
2016,05,01,02,33,7.30
2016,05,01,02,34,7.30
2016,05,01,02,35,7.30
2016,05,01,02,36,7.30
2016,05,01,02,37,7.30
2016,05,01,02,38,7.30
2016,05,01,02,39,7.30
2016,05,01,02,40,7.30
2016,05,01,02,41,7.30
2016,05,01,02,42,7.30
2016,05,01,02,43,7.30
2016,05,01,02,44,7.30
2016,05,01,02,45,7.30
2016,05,01,02,46,7.30
2016,05,01,02,47,7.30
2016,05,01,02,48,7.30
2016,05,01,02,49,7.30
2016,05,01,02,50,7.30
2016,05,01,02,51,7.30
2016,05,01,02,52,7.30
2016,05,01,02,53,7.30
2016,05,01,02,54,7.30
2016,05,01,02,55,7.30
2016,05,01,02,56,7.30
2016,05,01,02,57,7.30
2016,05,01,02,58,7.30
2016,05,01,02,59,7.30
2016,05,01,03,00,7.30
2016,05,01,03,01,7.30
2016,05,01,03,02,7.30
2016,05,01,03,03,7.30
2016,05,01,03,04,7.30
2016,05,01,03,05,7.20
2016,05,01,03,06,7.20
2016,05,01,03,07,7.20
2016,05,01,03,08,7.20
2016,05,01,03,09,7.20
2016,05,01,03,10,7.20
2016,05,01,03,11,7.20
2016,05,01,03,12,7.20
2016,05,01,03,13,7.20
2016,05,01,03,14,7.20
2016,05,01,03,15,7.20
2016,05,01,03,16,7.20
2016,05,01,03,17,7.20
2016,05,01,03,18,7.20
2016,05,01,03,19,7.20
2016,05,01,03,20,7.20
2016,05,01,03,21,7.20
2016,05,01,03,22,7.20
2016,05,01,03,23,7.20
2016,05,01,03,24,7.20
2016,05,01,03,25,7.20
2016,05,01,03,26,7.20
2016,05,01,03,27,7.20
2016,05,01,03,28,7.20
2016,05,01,03,29,7.10
2016,05,01,03,30,7.10
2016,05,01,03,31,7.10
2016,05,01,03,32,7.10
2016,05,01,03,33,7.10
2016,05,01,03,34,7.10
2016,05,01,03,35,7.10
2016,05,01,03,36,7.10
2016,05,01,03,37,7.10
2016,05,01,03,38,7.10
2016,05,01,03,39,7.10
2016,05,01,03,40,7.10
2016,05,01,03,41,7.10
2016,05,01,03,42,7.10
2016,05,01,03,43,7.10
2016,05,01,03,44,7.10
2016,05,01,03,45,7.10
2016,05,01,03,46,7.10
2016,05,01,03,47,7.10
2016,05,01,03,48,7.00
2016,05,01,03,49,7.00
2016,05,01,03,50,7.00
2016,05,01,03,51,7.00
2016,05,01,03,52,7.00
2016,05,01,03,53,7.00
2016,05,01,03,54,7.00
2016,05,01,03,55,7.00
2016,05,01,03,56,7.00
2016,05,01,03,57,7.00
2016,05,01,03,58,7.00
2016,05,01,03,59,7.00
2016,05,01,04,00,6.90
2016,05,01,04,01,6.90
2016,05,01,04,02,6.90
2016,05,01,04,03,6.90
2016,05,01,04,04,6.90
2016,05,01,04,05,6.90
2016,05,01,04,06,6.90
2016,05,01,04,07,6.90
2016,05,01,04,08,6.90
2016,05,01,04,09,6.90
2016,05,01,04,10,6.90
2016,05,01,04,11,6.90
2016,05,01,04,12,6.90
2016,05,01,04,13,6.90
2016,05,01,04,14,6.90
2016,05,01,04,15,6.90
2016,05,01,04,16,6.90
2016,05,01,04,17,6.80
2016,05,01,04,18,6.80
2016,05,01,04,19,6.80
2016,05,01,04,20,6.80
2016,05,01,04,21,6.80
2016,05,01,04,22,6.80
2016,05,01,04,23,6.80
2016,05,01,04,24,6.80
2016,05,01,04,25,6.80
2016,05,01,04,26,6.80
2016,05,01,04,27,6.80
2016,05,01,04,28,6.80
2016,05,01,04,29,6.80
2016,05,01,04,30,6.80
2016,05,01,04,31,6.80
2016,05,01,04,32,6.80
2016,05,01,04,33,6.80
2016,05,01,04,34,6.80
2016,05,01,04,35,6.80
2016,05,01,04,36,6.80
2016,05,01,04,37,6.80
2016,05,01,04,38,6.70
2016,05,01,04,39,6.70
2016,05,01,04,40,6.70
2016,05,01,04,41,6.70
2016,05,01,04,42,6.70
2016,05,01,04,43,6.70
2016,05,01,04,44,6.70
2016,05,01,04,45,6.60
2016,05,01,04,46,6.60
2016,05,01,04,47,6.60
2016,05,01,04,48,6.60
2016,05,01,04,49,6.60
2016,05,01,04,50,6.60
2016,05,01,04,51,6.60
2016,05,01,04,52,6.60
2016,05,01,04,53,6.60
2016,05,01,04,54,6.60
2016,05,01,04,55,6.60
2016,05,01,04,56,6.60
2016,05,01,04,57,6.60
2016,05,01,04,58,6.60
2016,05,01,04,59,6.40
2016,05,01,05,00,6.40
2016,05,01,05,01,6.40
2016,05,01,05,02,6.40
2016,05,01,05,03,6.40
2016,05,01,05,04,6.40
2016,05,01,05,05,6.40
2016,05,01,05,06,6.40
2016,05,01,05,07,6.40
2016,05,01,05,08,6.40
2016,05,01,05,09,6.40
2016,05,01,05,10,6.30
2016,05,01,05,11,6.30
2016,05,01,05,12,6.30
2016,05,01,05,13,6.30
2016,05,01,05,14,6.30
2016,05,01,05,15,6.30
2016,05,01,05,16,6.20
2016,05,01,05,17,6.20
2016,05,01,05,18,6.20
2016,05,01,05,19,6.20
2016,05,01,05,20,6.20
2016,05,01,05,21,6.20
2016,05,01,05,22,6.20
2016,05,01,05,23,6.20
2016,05,01,05,24,6.20
2016,05,01,05,25,6.20
2016,05,01,05,26,6.20
2016,05,01,05,27,6.20
2016,05,01,05,28,6.20
2016,05,01,05,29,6.20
2016,05,01,05,30,6.10
2016,05,01,05,31,6.10
2016,05,01,05,32,6.10
2016,05,01,05,33,6.10
2016,05,01,05,34,6.10
2016,05,01,05,35,6.10
2016,05,01,05,36,6.10
2016,05,01,05,37,6.10
2016,05,01,05,38,6.10
2016,05,01,05,39,6.10
2016,05,01,05,40,6.20
2016,05,01,05,41,6.20
2016,05,01,05,42,6.20
2016,05,01,05,43,6.20
2016,05,01,05,44,6.20
2016,05,01,05,45,6.20
2016,05,01,05,46,6.20
2016,05,01,05,47,6.20
2016,05,01,05,48,6.20
2016,05,01,05,49,6.20
2016,05,01,05,50,6.20
2016,05,01,05,51,6.20
2016,05,01,05,52,6.20
2016,05,01,05,53,6.20
2016,05,01,05,54,6.20
2016,05,01,05,55,6.20
2016,05,01,05,56,6.20
2016,05,01,05,57,6.20
2016,05,01,05,58,6.20
2016,05,01,05,59,6.20
2016,05,01,06,00,6.20
2016,05,01,06,01,6.20
2016,05,01,06,02,6.20
2016,05,01,06,03,6.20
2016,05,01,06,04,6.20
2016,05,01,06,05,6.20
2016,05,01,06,06,6.20
2016,05,01,06,07,6.20
2016,05,01,06,08,6.20
2016,05,01,06,09,6.20
2016,05,01,06,10,6.20
2016,05,01,06,11,6.20
2016,05,01,06,12,6.30
2016,05,01,06,13,6.30
2016,05,01,06,14,6.30
2016,05,01,06,15,6.30
2016,05,01,06,16,6.30
2016,05,01,06,17,6.30
2016,05,01,06,18,6.30
2016,05,01,06,19,6.30
2016,05,01,06,20,6.30
2016,05,01,06,21,6.30
2016,05,01,06,22,6.30
2016,05,01,06,23,6.40
2016,05,01,06,24,6.40
2016,05,01,06,25,6.40
2016,05,01,06,26,6.40
2016,05,01,06,27,6.40
2016,05,01,06,28,6.40
2016,05,01,06,29,6.40
2016,05,01,06,30,6.40
2016,05,01,06,31,6.40
2016,05,01,06,32,6.40
2016,05,01,06,33,6.40
2016,05,01,06,34,6.40
2016,05,01,06,35,6.50
2016,05,01,06,36,6.60
2016,05,01,06,37,6.60
2016,05,01,06,38,6.60
2016,05,01,06,39,6.60
2016,05,01,06,40,6.60
2016,05,01,06,41,6.60
2016,05,01,06,42,6.60
2016,05,01,06,43,6.60
2016,05,01,06,44,6.60
2016,05,01,06,45,6.60
2016,05,01,06,46,6.60
2016,05,01,06,47,6.60
2016,05,01,06,48,6.60
2016,05,01,06,49,6.60
2016,05,01,06,50,6.70
2016,05,01,06,51,6.70
2016,05,01,06,52,6.70
2016,05,01,06,53,6.80
2016,05,01,06,54,6.80
2016,05,01,06,55,6.80
2016,05,01,06,56,6.80
2016,05,01,06,57,6.80
2016,05,01,06,58,6.80
2016,05,01,06,59,6.80
2016,05,01,07,00,6.80
2016,05,01,07,01,6.90
2016,05,01,07,02,6.90
2016,05,01,07,03,6.90
2016,05,01,07,04,6.90
2016,05,01,07,05,6.90
2016,05,01,07,06,7.00
2016,05,01,07,07,7.00
2016,05,01,07,08,7.00
2016,05,01,07,09,7.00
2016,05,01,07,10,7.10
2016,05,01,07,11,7.10
2016,05,01,07,12,7.20
2016,05,01,07,13,7.20
2016,05,01,07,14,7.30
2016,05,01,07,15,7.30
2016,05,01,07,16,7.30
2016,05,01,07,17,7.40
2016,05,01,07,18,7.50
2016,05,01,07,19,7.50
2016,05,01,07,20,7.60
2016,05,01,07,21,7.60
2016,05,01,07,22,7.70
2016,05,01,07,23,7.70
2016,05,01,07,24,7.80
2016,05,01,07,25,7.80
2016,05,01,07,26,7.80
2016,05,01,07,27,7.80
2016,05,01,07,28,7.80
2016,05,01,07,29,7.90
2016,05,01,07,30,7.90
2016,05,01,07,31,7.90
2016,05,01,07,32,8.00
2016,05,01,07,33,8.00
2016,05,01,07,34,8.00
2016,05,01,07,35,8.10
2016,05,01,07,36,8.10
2016,05,01,07,37,8.20
2016,05,01,07,38,8.20
2016,05,01,07,39,8.30
2016,05,01,07,40,8.40
2016,05,01,07,41,8.50
2016,05,01,07,42,8.60
2016,05,01,07,43,8.70
2016,05,01,07,44,8.90
2016,05,01,07,45,9.10
2016,05,01,07,46,9.30
2016,05,01,07,47,9.50
2016,05,01,07,48,9.60
2016,05,01,07,49,9.70
2016,05,01,07,50,9.90
2016,05,01,07,51,10.10
2016,05,01,07,52,10.20
2016,05,01,07,53,10.40
2016,05,01,07,54,10.50
2016,05,01,07,55,10.60
2016,05,01,07,56,10.70
2016,05,01,07,57,10.90
2016,05,01,07,58,10.90
2016,05,01,07,59,11.10
2016,05,01,08,00,11.10
2016,05,01,08,01,11.20
2016,05,01,08,02,11.20
2016,05,01,08,03,11.30
2016,05,01,08,04,11.40
2016,05,01,08,05,11.50
2016,05,01,08,06,11.60
2016,05,01,08,07,11.70
2016,05,01,08,08,11.80
2016,05,01,08,09,11.80
2016,05,01,08,10,11.80
2016,05,01,08,11,11.80
2016,05,01,08,12,11.90
2016,05,01,08,13,12.00
2016,05,01,08,14,12.00
2016,05,01,08,15,12.10
2016,05,01,08,16,12.20
2016,05,01,08,17,12.30
2016,05,01,08,18,12.40
2016,05,01,08,19,12.50
2016,05,01,08,20,12.60
2016,05,01,08,21,12.70
2016,05,01,08,22,12.80
2016,05,01,08,23,12.80
2016,05,01,08,24,12.80
2016,05,01,08,25,12.90
2016,05,01,08,26,12.90
2016,05,01,08,27,13.00
2016,05,01,08,28,13.00
2016,05,01,08,29,13.00
2016,05,01,08,30,13.00
2016,05,01,08,31,13.10
2016,05,01,08,32,13.10
2016,05,01,08,33,13.10
2016,05,01,08,34,13.20
2016,05,01,08,35,13.20
2016,05,01,08,36,13.20
2016,05,01,08,37,13.30
2016,05,01,08,38,13.30
2016,05,01,08,39,13.30
2016,05,01,08,40,13.30
2016,05,01,08,41,13.30
2016,05,01,08,42,13.30
2016,05,01,08,43,13.30
2016,05,01,08,44,13.30
2016,05,01,08,45,13.30
2016,05,01,08,46,13.30
2016,05,01,08,47,13.30
2016,05,01,08,48,13.40
2016,05,01,08,49,13.40
2016,05,01,08,50,13.50
2016,05,01,08,51,13.50
2016,05,01,08,52,13.50
2016,05,01,08,53,13.60
2016,05,01,08,54,13.60
2016,05,01,08,55,13.70
2016,05,01,08,56,13.70
2016,05,01,08,57,13.70
2016,05,01,08,58,13.80
2016,05,01,08,59,13.80
2016,05,01,09,00,13.90
2016,05,01,09,01,13.90
2016,05,01,09,02,13.90
2016,05,01,09,03,13.90
2016,05,01,09,04,14.00
2016,05,01,09,05,14.00
2016,05,01,09,06,14.00
2016,05,01,09,07,14.10
2016,05,01,09,08,14.20
2016,05,01,09,09,14.20
2016,05,01,09,10,14.20
2016,05,01,09,11,14.20
2016,05,01,09,12,14.20
2016,05,01,09,13,14.20
2016,05,01,09,14,14.20
2016,05,01,09,15,14.20
2016,05,01,09,16,14.20
2016,05,01,09,17,14.30
2016,05,01,09,18,14.30
2016,05,01,09,19,14.30
2016,05,01,09,20,14.30
2016,05,01,09,21,14.40
2016,05,01,09,22,14.50
2016,05,01,09,23,14.70
2016,05,01,09,24,14.80
2016,05,01,09,25,14.80
2016,05,01,09,26,14.90
2016,05,01,09,27,14.90
2016,05,01,09,28,15.00
2016,05,01,09,29,15.10
2016,05,01,09,30,15.10
2016,05,01,09,31,15.20
2016,05,01,09,32,15.20
2016,05,01,09,33,15.20
2016,05,01,09,34,15.20
2016,05,01,09,35,15.30
2016,05,01,09,36,15.30
2016,05,01,09,37,15.30
2016,05,01,09,38,15.30
2016,05,01,09,39,15.30
2016,05,01,09,40,15.30
2016,05,01,09,41,15.30
2016,05,01,09,42,15.30
2016,05,01,09,43,15.30
2016,05,01,09,44,15.30
2016,05,01,09,45,15.40
2016,05,01,09,46,15.40
2016,05,01,09,47,15.40
2016,05,01,09,48,15.50
2016,05,01,09,49,15.60
2016,05,01,09,50,15.60
2016,05,01,09,51,15.70
2016,05,01,09,52,15.80
2016,05,01,09,53,15.80
2016,05,01,09,54,15.80
2016,05,01,09,55,15.80
2016,05,01,09,56,15.90
2016,05,01,09,57,15.90
2016,05,01,09,58,15.90
2016,05,01,09,59,16.00
2016,05,01,10,00,16.10
2016,05,01,10,01,16.10
2016,05,01,10,02,16.10
2016,05,01,10,03,16.10
2016,05,01,10,04,16.10
2016,05,01,10,05,16.20
2016,05,01,10,06,16.20
2016,05,01,10,07,16.30
2016,05,01,10,08,16.30
2016,05,01,10,09,16.30
2016,05,01,10,10,16.40
2016,05,01,10,11,16.40
2016,05,01,10,12,16.40
2016,05,01,10,13,16.40
2016,05,01,10,14,16.40
2016,05,01,10,15,16.40
2016,05,01,10,16,16.40
2016,05,01,10,17,16.40
2016,05,01,10,18,16.40
2016,05,01,10,19,16.40
2016,05,01,10,20,16.40
2016,05,01,10,21,16.50
2016,05,01,10,22,16.50
2016,05,01,10,23,16.60
2016,05,01,10,24,16.60
2016,05,01,10,25,16.60
2016,05,01,10,26,16.60
2016,05,01,10,27,16.60
2016,05,01,10,28,16.60
2016,05,01,10,29,16.70
2016,05,01,10,30,16.70
2016,05,01,10,31,16.70
2016,05,01,10,32,16.70
2016,05,01,10,33,16.70
2016,05,01,10,34,16.70
2016,05,01,10,35,16.80
2016,05,01,10,36,16.80
2016,05,01,10,37,16.90
2016,05,01,10,38,16.90
2016,05,01,10,39,17.00
2016,05,01,10,40,17.00
2016,05,01,10,41,17.00
2016,05,01,10,42,17.10
2016,05,01,10,43,17.10
2016,05,01,10,44,17.10
2016,05,01,10,45,17.10
2016,05,01,10,46,17.20
2016,05,01,10,47,17.20
2016,05,01,10,48,17.30
2016,05,01,10,49,17.30
2016,05,01,10,50,17.30
2016,05,01,10,51,17.30
2016,05,01,10,52,17.30
2016,05,01,10,53,17.30
2016,05,01,10,54,17.30
2016,05,01,10,55,17.30
2016,05,01,10,56,17.30
2016,05,01,10,57,17.40
2016,05,01,10,58,17.40
2016,05,01,10,59,17.40
2016,05,01,11,00,17.40
2016,05,01,11,01,17.40
2016,05,01,11,02,17.50
2016,05,01,11,03,17.50
2016,05,01,11,04,17.50
2016,05,01,11,05,17.50
2016,05,01,11,06,17.50
2016,05,01,11,07,17.60
2016,05,01,11,08,17.60
2016,05,01,11,09,17.60
2016,05,01,11,10,17.70
2016,05,01,11,11,17.70
2016,05,01,11,12,17.70
2016,05,01,11,13,17.80
2016,05,01,11,14,17.80
2016,05,01,11,15,17.80
2016,05,01,11,16,17.80
2016,05,01,11,17,17.90
2016,05,01,11,18,17.90
2016,05,01,11,19,17.90
2016,05,01,11,20,17.90
2016,05,01,11,21,17.90
2016,05,01,11,22,17.90
2016,05,01,11,23,17.90
2016,05,01,11,24,17.90
2016,05,01,11,25,17.90
2016,05,01,11,26,17.90
2016,05,01,11,27,17.90
2016,05,01,11,28,17.90
2016,05,01,11,29,17.90
2016,05,01,11,30,17.90
2016,05,01,11,31,17.90
2016,05,01,11,32,17.90
2016,05,01,11,33,18.00
2016,05,01,11,34,18.10
2016,05,01,11,35,18.10
2016,05,01,11,36,18.10
2016,05,01,11,37,18.10
2016,05,01,11,38,18.10
2016,05,01,11,39,18.10
2016,05,01,11,40,18.20
2016,05,01,11,41,18.20
2016,05,01,11,42,18.20
2016,05,01,11,43,18.20
2016,05,01,11,44,18.20
2016,05,01,11,45,18.20
2016,05,01,11,46,18.20
2016,05,01,11,47,18.30
2016,05,01,11,48,18.30
2016,05,01,11,49,18.40
2016,05,01,11,50,18.40
2016,05,01,11,51,18.40
2016,05,01,11,52,18.50
2016,05,01,11,53,18.50
2016,05,01,11,54,18.50
2016,05,01,11,55,18.50
2016,05,01,11,56,18.50
2016,05,01,11,57,18.60
2016,05,01,11,58,18.60
2016,05,01,11,59,18.70
2016,05,01,12,00,18.70
2016,05,01,12,01,18.70
2016,05,01,12,02,18.80
2016,05,01,12,03,18.80
2016,05,01,12,04,18.80
2016,05,01,12,05,18.80
2016,05,01,12,06,18.90
2016,05,01,12,07,18.90
2016,05,01,12,08,18.90
2016,05,01,12,09,18.90
2016,05,01,12,10,19.10
2016,05,01,12,11,19.10
2016,05,01,12,12,19.10
2016,05,01,12,13,19.10
2016,05,01,12,14,19.10
2016,05,01,12,15,19.10
2016,05,01,12,16,19.10
2016,05,01,12,17,19.10
2016,05,01,12,18,19.20
2016,05,01,12,19,19.20
2016,05,01,12,20,19.30
2016,05,01,12,21,19.30
2016,05,01,12,22,19.30
2016,05,01,12,23,19.30
2016,05,01,12,24,19.30
2016,05,01,12,25,19.30
2016,05,01,12,26,19.30
2016,05,01,12,27,19.30
2016,05,01,12,28,19.30
2016,05,01,12,29,19.40
2016,05,01,12,30,19.40
2016,05,01,12,31,19.40
2016,05,01,12,32,19.50
2016,05,01,12,33,19.50
2016,05,01,12,34,19.60
2016,05,01,12,35,19.60
2016,05,01,12,36,19.60
2016,05,01,12,37,19.60
2016,05,01,12,38,19.60
2016,05,01,12,39,19.70
2016,05,01,12,40,19.80
2016,05,01,12,41,19.80
2016,05,01,12,42,19.80
2016,05,01,12,43,19.90
2016,05,01,12,44,19.90
2016,05,01,12,45,19.90
2016,05,01,12,46,19.90
2016,05,01,12,47,19.90
2016,05,01,12,48,20.00
2016,05,01,12,49,20.10
2016,05,01,12,50,20.10
2016,05,01,12,51,20.10
2016,05,01,12,52,20.10
2016,05,01,12,53,20.10
2016,05,01,12,54,20.20
2016,05,01,12,55,20.20
2016,05,01,12,56,20.20
2016,05,01,12,57,20.20
2016,05,01,12,58,20.30
2016,05,01,12,59,20.30
2016,05,01,13,00,20.40
2016,05,01,13,01,20.40
2016,05,01,13,02,20.50
2016,05,01,13,03,20.50
2016,05,01,13,04,20.50
2016,05,01,13,05,20.60
2016,05,01,13,06,20.70
2016,05,01,13,07,20.70
2016,05,01,13,08,20.70
2016,05,01,13,09,20.70
2016,05,01,13,10,20.80
2016,05,01,13,11,20.80
2016,05,01,13,12,20.90
2016,05,01,13,13,21.00
2016,05,01,13,14,21.00
2016,05,01,13,15,21.10
2016,05,01,13,16,21.20
2016,05,01,13,17,21.30
2016,05,01,13,18,21.30
2016,05,01,13,19,21.30
2016,05,01,13,20,21.30
2016,05,01,13,21,21.30
2016,05,01,13,22,21.30
2016,05,01,13,23,21.30
2016,05,01,13,24,21.30
2016,05,01,13,25,21.30
2016,05,01,13,26,21.30
2016,05,01,13,27,21.40
2016,05,01,13,28,21.50
2016,05,01,13,29,21.60
2016,05,01,13,30,21.60
2016,05,01,13,31,21.70
2016,05,01,13,32,21.80
2016,05,01,13,33,21.80
2016,05,01,13,34,21.80
2016,05,01,13,35,21.80
2016,05,01,13,36,21.70
2016,05,01,13,37,21.70
2016,05,01,13,38,21.70
2016,05,01,13,39,21.70
2016,05,01,13,40,21.70
2016,05,01,13,41,21.70
2016,05,01,13,42,21.80
2016,05,01,13,43,21.80
2016,05,01,13,44,21.60
2016,05,01,13,45,21.60
2016,05,01,13,46,21.60
2016,05,01,13,47,21.60
2016,05,01,13,48,21.70
2016,05,01,13,49,21.80
2016,05,01,13,50,21.90
2016,05,01,13,51,22.00
2016,05,01,13,52,22.10
2016,05,01,13,53,22.10
2016,05,01,13,54,22.20
2016,05,01,13,55,22.30
2016,05,01,13,56,22.40
2016,05,01,13,57,22.50
2016,05,01,13,58,22.50
2016,05,01,13,59,22.60
2016,05,01,14,00,22.70
2016,05,01,14,01,22.70
2016,05,01,14,02,22.80
2016,05,01,14,03,22.80
2016,05,01,14,04,22.90
2016,05,01,14,05,22.90
2016,05,01,14,06,22.80
2016,05,01,14,07,22.80
2016,05,01,14,08,22.70
2016,05,01,14,09,22.60
2016,05,01,14,10,22.50
2016,05,01,14,11,22.60
2016,05,01,14,12,22.60
2016,05,01,14,13,22.60
2016,05,01,14,14,22.70
2016,05,01,14,15,22.70
2016,05,01,14,16,22.90
2016,05,01,14,17,22.90
2016,05,01,14,18,23.10
2016,05,01,14,19,23.20
2016,05,01,14,20,23.10
2016,05,01,14,21,22.90
2016,05,01,14,22,22.90
2016,05,01,14,23,22.80
2016,05,01,14,24,22.70
2016,05,01,14,25,22.70
2016,05,01,14,26,22.70
2016,05,01,14,27,22.70
2016,05,01,14,28,22.70
2016,05,01,14,29,22.80
2016,05,01,14,30,22.90
2016,05,01,14,31,23.00
2016,05,01,14,32,23.20
2016,05,01,14,33,23.40
2016,05,01,14,34,23.50
2016,05,01,14,35,23.60
2016,05,01,14,36,23.70
2016,05,01,14,37,23.80
2016,05,01,14,38,23.80
2016,05,01,14,39,23.70
2016,05,01,14,40,23.70
2016,05,01,14,41,23.60
2016,05,01,14,42,23.40
2016,05,01,14,43,23.40
2016,05,01,14,44,23.30
2016,05,01,14,45,23.30
2016,05,01,14,46,23.30
2016,05,01,14,47,23.30
2016,05,01,14,48,23.30
2016,05,01,14,49,23.30
2016,05,01,14,50,23.30
2016,05,01,14,51,23.30
2016,05,01,14,52,23.30
2016,05,01,14,53,23.40
2016,05,01,14,54,23.40
2016,05,01,14,55,23.40
2016,05,01,14,56,23.60
2016,05,01,14,57,23.60
2016,05,01,14,58,23.70
2016,05,01,14,59,23.80
2016,05,01,15,00,23.80
2016,05,01,15,01,23.80
2016,05,01,15,02,23.80
2016,05,01,15,03,23.80
2016,05,01,15,04,23.90
2016,05,01,15,05,23.90
2016,05,01,15,06,23.90
2016,05,01,15,07,23.90
2016,05,01,15,08,24.00
2016,05,01,15,09,24.00
2016,05,01,15,10,23.90
2016,05,01,15,11,23.80
2016,05,01,15,12,23.70
2016,05,01,15,13,23.70
2016,05,01,15,14,23.70
2016,05,01,15,15,23.70
2016,05,01,15,16,23.70
2016,05,01,15,17,23.60
2016,05,01,15,18,23.50
2016,05,01,15,19,23.40
2016,05,01,15,20,23.40
2016,05,01,15,21,23.40
2016,05,01,15,22,23.30
2016,05,01,15,23,23.30
2016,05,01,15,24,23.40
2016,05,01,15,25,23.40
2016,05,01,15,26,23.40
2016,05,01,15,27,23.50
2016,05,01,15,28,23.40
2016,05,01,15,29,23.40
2016,05,01,15,30,23.40
2016,05,01,15,31,23.40
2016,05,01,15,32,23.60
2016,05,01,15,33,23.60
2016,05,01,15,34,23.60
2016,05,01,15,35,23.50
2016,05,01,15,36,23.40
2016,05,01,15,37,23.50
2016,05,01,15,38,23.60
2016,05,01,15,39,23.60
2016,05,01,15,40,23.60
2016,05,01,15,41,23.70
2016,05,01,15,42,23.70
2016,05,01,15,43,23.70
2016,05,01,15,44,23.70
2016,05,01,15,45,23.70
2016,05,01,15,46,23.70
2016,05,01,15,47,23.70
2016,05,01,15,48,23.70
2016,05,01,15,49,23.70
2016,05,01,15,50,23.70
2016,05,01,15,51,23.70
2016,05,01,15,52,23.70
2016,05,01,15,53,23.70
2016,05,01,15,54,23.70
2016,05,01,15,55,23.70
2016,05,01,15,56,23.70
2016,05,01,15,57,23.70
2016,05,01,15,58,23.70
2016,05,01,15,59,23.70
2016,05,01,16,00,23.70
2016,05,01,16,01,23.70
2016,05,01,16,02,23.70
2016,05,01,16,03,23.60
2016,05,01,16,04,23.60
2016,05,01,16,05,23.60
2016,05,01,16,06,23.60
2016,05,01,16,07,23.50
2016,05,01,16,08,23.40
2016,05,01,16,09,23.40
2016,05,01,16,10,23.40
2016,05,01,16,11,23.30
2016,05,01,16,12,23.30
2016,05,01,16,13,23.30
2016,05,01,16,14,23.30
2016,05,01,16,15,23.30
2016,05,01,16,16,23.30
2016,05,01,16,17,23.30
2016,05,01,16,18,23.30
2016,05,01,16,19,23.20
2016,05,01,16,20,23.20
2016,05,01,16,21,23.20
2016,05,01,16,22,23.20
2016,05,01,16,23,23.10
2016,05,01,16,24,23.10
2016,05,01,16,25,23.10
2016,05,01,16,26,23.10
2016,05,01,16,27,23.00
2016,05,01,16,28,22.90
2016,05,01,16,29,22.90
2016,05,01,16,30,22.90
2016,05,01,16,31,22.90
2016,05,01,16,32,22.90
2016,05,01,16,33,22.90
2016,05,01,16,34,22.90
2016,05,01,16,35,22.90
2016,05,01,16,36,22.90
2016,05,01,16,37,22.90
2016,05,01,16,38,22.90
2016,05,01,16,39,22.90
2016,05,01,16,40,22.90
2016,05,01,16,41,22.90
2016,05,01,16,42,22.90
2016,05,01,16,43,22.90
2016,05,01,16,44,22.90
2016,05,01,16,45,22.90
2016,05,01,16,46,22.90
2016,05,01,16,47,22.90
2016,05,01,16,48,23.00
2016,05,01,16,49,23.10
2016,05,01,16,50,23.10
2016,05,01,16,51,23.10
2016,05,01,16,52,23.10
2016,05,01,16,53,23.10
2016,05,01,16,54,23.00
2016,05,01,16,55,22.90
2016,05,01,16,56,22.90
2016,05,01,16,57,22.90
2016,05,01,16,58,22.90
2016,05,01,16,59,22.90
2016,05,01,17,00,22.90
2016,05,01,17,01,22.90
2016,05,01,17,02,22.90
2016,05,01,17,03,22.90
2016,05,01,17,04,22.90
2016,05,01,17,05,22.90
2016,05,01,17,06,22.90
2016,05,01,17,07,22.90
2016,05,01,17,08,22.90
2016,05,01,17,09,22.80
2016,05,01,17,10,22.80
2016,05,01,17,11,22.80
2016,05,01,17,12,22.80
2016,05,01,17,13,22.80
2016,05,01,17,14,22.70
2016,05,01,17,15,22.70
2016,05,01,17,16,22.60
2016,05,01,17,17,22.60
2016,05,01,17,18,22.60
2016,05,01,17,19,22.60
2016,05,01,17,20,22.50
2016,05,01,17,21,22.50
2016,05,01,17,22,22.40
2016,05,01,17,23,22.40
2016,05,01,17,24,22.40
2016,05,01,17,25,22.40
2016,05,01,17,26,22.40
2016,05,01,17,27,22.30
2016,05,01,17,28,22.30
2016,05,01,17,29,22.30
2016,05,01,17,30,22.30
2016,05,01,17,31,22.30
2016,05,01,17,32,22.30
2016,05,01,17,33,22.30
2016,05,01,17,34,22.30
2016,05,01,17,35,22.30
2016,05,01,17,36,22.30
2016,05,01,17,37,22.20
2016,05,01,17,38,22.20
2016,05,01,17,39,22.20